| time (UTC) | temp C | wind direction | speed KPH | gust KPH | rain 1hr cm | rain 24hr cm | rain mn cm | humidity % | barometer mb |
| 20260506153701 | 21 | 141 | 1.6 | 4.8 | 0.00 | 0.00 | 0.00 | 60 | 1012.7 |
| 20260506153410 | 21 | 141 | 3.2 | 22.5 | 0.00 | 0.00 | 0.00 | 60 | 1012.7 |
| 20260506153221 | 21 | 138 | 3.2 | 22.5 | 0.00 | 0.00 | 0.00 | 60 | 1012.7 |
| 20260506153046 | 21 | 167 | 1.6 | 22.5 | 0.00 | 0.00 | 0.00 | 60 | 1012.7 |
| 20260506152800 | 21 | 137 | 3.2 | 22.5 | 0.00 | 0.00 | 0.00 | 60 | 1012.7 |
| 20260506152554 | 21 | 145 | 3.2 | 22.5 | 0.00 | 0.00 | 0.00 | 60 | 1012.7 |
| 20260506152359 | 21 | 162 | 1.6 | 11.3 | 0.00 | 0.00 | 0.00 | 60 | 1012.7 |
| 20260506152158 | 21 | 124 | 1.6 | 11.3 | 0.00 | 0.00 | 0.00 | 60 | 1012.7 |
| 20260506151950 | 21 | 128 | 1.6 | 11.3 | 0.00 | 0.00 | 0.00 | 60 | 1012.7 |
| 20260506151748 | 21 | 127 | 1.6 | 12.9 | 0.00 | 0.00 | 0.00 | 60 | 1012.7 |
| 20260506151550 | 21 | 141 | 1.6 | 12.9 | 0.00 | 0.00 | 0.00 | 60 | 1012.7 |
| 20260506151352 | 21 | 222 | 3.2 | 12.9 | 0.00 | 0.00 | 0.00 | 61 | 1012.7 |
| 20260506151206 | 21 | 168 | 3.2 | 12.9 | 0.00 | 0.00 | 0.00 | 62 | 1012.7 |
| 20260506151025 | 21 | 158 | 3.2 | 12.9 | 0.00 | 0.00 | 0.00 | 62 | 1012.7 |
| 20260506150742 | 21 | 123 | 3.2 | 12.9 | 0.00 | 0.00 | 0.00 | 62 | 1012.7 |
| 20260506150535 | 21 | 161 | 3.2 | 12.9 | 0.00 | 0.00 | 0.00 | 63 | 1012.7 |
| 20260506150339 | 21 | 223 | 3.2 | 11.3 | 0.00 | 0.00 | 0.00 | 63 | 1012.7 |
| 20260506150135 | 21 | 127 | 4.8 | 12.9 | 0.00 | 0.00 | 0.00 | 63 | 1012.7 |
| 20260506145936 | 21 | 147 | 4.8 | 12.9 | 0.00 | 0.00 | 0.00 | 63 | 1012.7 |
| 20260506145747 | 21 | 171 | 4.8 | 12.9 | 0.00 | 0.00 | 0.00 | 63 | 1012.6 |
| 20260506145546 | 21 | 178 | 4.8 | 12.9 | 0.00 | 0.00 | 0.00 | 63 | 1012.6 |
| 20260506145400 | 21 | 165 | 4.8 | 12.9 | 0.00 | 0.00 | 0.00 | 63 | 1012.6 |
| 20260506145216 | 21 | 114 | 4.8 | 12.9 | 0.00 | 0.00 | 0.00 | 63 | 1012.6 |
| 20260506145025 | 21 | 110 | 4.8 | 16.1 | 0.00 | 0.00 | 0.00 | 62 | 1012.6 |
| 20260506144739 | 21 | 154 | 4.8 | 16.1 | 0.00 | 0.00 | 0.00 | 62 | 1012.6 |
| 20260506144537 | 21 | 127 | 4.8 | 16.1 | 0.00 | 0.00 | 0.00 | 62 | 1012.6 |
| 20260506144345 | 21 | 138 | 3.2 | 16.1 | 0.00 | 0.00 | 0.00 | 62 | 1012.7 |
| 20260506144131 | 21 | 127 | 3.2 | 16.1 | 0.00 | 0.00 | 0.00 | 63 | 1012.7 |
| 20260506143932 | 21 | 137 | 3.2 | 11.3 | 0.00 | 0.00 | 0.00 | 62 | 1012.7 |
| 20260506143731 | 21 | 117 | 3.2 | 11.3 | 0.00 | 0.00 | 0.00 | 62 | 1012.7 |
| 20260506143535 | 21 | 136 | 3.2 | 9.7 | 0.00 | 0.00 | 0.00 | 62 | 1012.7 |
| 20260506143334 | 21 | 179 | 4.8 | 11.3 | 0.00 | 0.00 | 0.00 | 62 | 1012.7 |
| 20260506143146 | 21 | 176 | 4.8 | 11.3 | 0.00 | 0.00 | 0.00 | 62 | 1012.7 |
| 20260506143014 | 21 | 158 | 4.8 | 12.9 | 0.00 | 0.00 | 0.00 | 61 | 1012.7 |
| 20260506142724 | 21 | 121 | 4.8 | 12.9 | 0.00 | 0.00 | 0.00 | 61 | 1012.8 |
| 20260506142525 | 21 | 169 | 4.8 | 12.9 | 0.00 | 0.00 | 0.00 | 61 | 1012.8 |
| 20260506142327 | 21 | 172 | 4.8 | 12.9 | 0.00 | 0.00 | 0.00 | 61 | 1012.8 |
| 20260506142138 | 21 | 143 | 4.8 | 12.9 | 0.00 | 0.00 | 0.00 | 61 | 1012.8 |
| 20260506141938 | 21 | 133 | 4.8 | 11.3 | 0.00 | 0.00 | 0.00 | 62 | 1012.8 |
| 20260506141735 | 21 | 154 | 4.8 | 12.9 | 0.00 | 0.00 | 0.00 | 63 | 1012.8 |
| 20260506141536 | 21 | 102 | 4.8 | 12.9 | 0.00 | 0.00 | 0.00 | 62 | 1012.8 |
| 20260506141334 | 21 | 110 | 4.8 | 12.9 | 0.00 | 0.00 | 0.00 | 62 | 1012.8 |
| 20260506141145 | 21 | 140 | 4.8 | 12.9 | 0.00 | 0.00 | 0.00 | 62 | 1012.8 |
| 20260506141014 | 21 | 141 | 4.8 | 12.9 | 0.00 | 0.00 | 0.00 | 64 | 1012.8 |
| 20260506140723 | 21 | 131 | 4.8 | 12.9 | 0.00 | 0.00 | 0.00 | 64 | 1012.8 |
| 20260506140523 | 21 | 127 | 4.8 | 14.5 | 0.00 | 0.00 | 0.00 | 65 | 1012.8 |
| 20260506140324 | 21 | 137 | 6.4 | 14.5 | 0.00 | 0.00 | 0.00 | 64 | 1012.8 |
| 20260506140117 | 21 | 121 | 6.4 | 16.1 | 0.00 | 0.00 | 0.00 | 64 | 1012.8 |
| 20260506135917 | 21 | 123 | 6.4 | 16.1 | 0.00 | 0.00 | 0.00 | 64 | 1012.8 |
| 20260506135714 | 21 | 127 | 6.4 | 16.1 | 0.00 | 0.00 | 0.00 | 64 | 1012.9 |
| 20260506135520 | 21 | 161 | 6.4 | 16.1 | 0.00 | 0.00 | 0.00 | 63 | 1012.9 |
| 20260506135332 | 21 | 189 | 6.4 | 16.1 | 0.00 | 0.00 | 0.00 | 62 | 1012.9 |
| 20260506135145 | 21 | 148 | 6.4 | 12.9 | 0.00 | 0.00 | 0.00 | 61 | 1012.9 |
| 20260506134957 | 21 | 131 | 6.4 | 11.3 | 0.00 | 0.00 | 0.00 | 61 | 1012.9 |
| 20260506134700 | 21 | 148 | 6.4 | 11.3 | 0.00 | 0.00 | 0.00 | 60 | 1012.9 |
| 20260506134458 | 21 | 126 | 6.4 | 11.3 | 0.00 | 0.00 | 0.00 | 60 | 1012.9 |
| 20260506134058 | 21 | 133 | 6.4 | 11.3 | 0.00 | 0.00 | 0.00 | 60 | 1013.0 |
| 20260506133859 | 21 | 131 | 4.8 | 11.3 | 0.00 | 0.00 | 0.00 | 60 | 1013.0 |
| 20260506133654 | 21 | 133 | 4.8 | 11.3 | 0.00 | 0.00 | 0.00 | 61 | 1013.0 |
| 20260506133456 | 21 | 152 | 3.2 | 11.3 | 0.00 | 0.00 | 0.00 | 63 | 1013.0 |
| 20260506133249 | 21 | 140 | 3.2 | 11.3 | 0.00 | 0.00 | 0.00 | 64 | 1013.0 |
| 20260506133050 | 21 | 155 | 3.2 | 11.3 | 0.00 | 0.00 | 0.00 | 65 | 1013.0 |
| 20260506132850 | 21 | 140 | 4.8 | 11.3 | 0.00 | 0.00 | 0.00 | 65 | 1013.0 |
| 20260506132655 | 21 | 164 | 4.8 | 11.3 | 0.00 | 0.00 | 0.00 | 66 | 1013.0 |
| 20260506132445 | 21 | 174 | 4.8 | 11.3 | 0.00 | 0.00 | 0.00 | 66 | 1013.0 |
| 20260506132251 | 21 | 126 | 4.8 | 11.3 | 0.00 | 0.00 | 0.00 | 66 | 1013.0 |
| 20260506132052 | 21 | 128 | 6.4 | 11.3 | 0.00 | 0.00 | 0.00 | 67 | 1013.0 |
| 20260506131846 | 21 | 154 | 4.8 | 11.3 | 0.00 | 0.00 | 0.00 | 67 | 1013.0 |
| 20260506131637 | 21 | 138 | 6.4 | 11.3 | 0.00 | 0.00 | 0.00 | 67 | 1013.0 |
| 20260506131434 | 21 | 148 | 4.8 | 12.9 | 0.00 | 0.00 | 0.00 | 67 | 1013.0 |
| 20260506131227 | 21 | 124 | 6.4 | 12.9 | 0.00 | 0.00 | 0.00 | 67 | 1013.1 |
| 20260506131029 | 21 | 147 | 6.4 | 12.9 | 0.00 | 0.00 | 0.00 | 67 | 1013.1 |
| 20260506130834 | 21 | 158 | 6.4 | 12.9 | 0.00 | 0.00 | 0.00 | 67 | 1013.1 |
| 20260506130627 | 21 | 152 | 6.4 | 12.9 | 0.00 | 0.00 | 0.00 | 67 | 1013.1 |
| 20260506130426 | 21 | 133 | 6.4 | 12.9 | 0.00 | 0.00 | 0.00 | 67 | 1013.1 |
| 20260506130223 | 21 | 131 | 6.4 | 16.1 | 0.00 | 0.00 | 0.00 | 67 | 1013.1 |
| 20260506130029 | 21 | 110 | 6.4 | 16.1 | 0.00 | 0.00 | 0.00 | 67 | 1013.1 |
| 20260506125835 | 20 | 143 | 8.0 | 16.1 | 0.00 | 0.00 | 0.00 | 67 | 1013.3 |
| 20260506125640 | 21 | 162 | 8.0 | 16.1 | 0.00 | 0.00 | 0.00 | 68 | 1013.3 |
| 20260506125503 | 21 | 155 | 8.0 | 16.1 | 0.00 | 0.00 | 0.00 | 68 | 1013.3 |
| 20260506125213 | 21 | 117 | 8.0 | 17.7 | 0.00 | 0.00 | 0.00 | 68 | 1013.3 |
| 20260506125012 | 21 | 130 | 8.0 | 17.7 | 0.00 | 0.00 | 0.00 | 68 | 1013.3 |
| 20260506124816 | 21 | 136 | 8.0 | 17.7 | 0.00 | 0.00 | 0.00 | 68 | 1013.3 |
| 20260506124605 | 21 | 160 | 8.0 | 17.7 | 0.00 | 0.00 | 0.00 | 69 | 1013.3 |
| 20260506124404 | 21 | 151 | 8.0 | 17.7 | 0.00 | 0.00 | 0.00 | 69 | 1013.4 |
| 20260506124200 | 21 | 133 | 8.0 | 16.1 | 0.00 | 0.00 | 0.00 | 68 | 1013.4 |
| 20260506124000 | 21 | 106 | 8.0 | 16.1 | 0.00 | 0.00 | 0.00 | 68 | 1013.4 |
| 20260506123806 | 21 | 127 | 8.0 | 16.1 | 0.00 | 0.00 | 0.00 | 67 | 1013.4 |
| 20260506123558 | 21 | 162 | 6.4 | 16.1 | 0.00 | 0.00 | 0.00 | 67 | 1013.4 |
| 20260506123356 | 21 | 199 | 6.4 | 16.1 | 0.00 | 0.00 | 0.00 | 67 | 1013.4 |
| 20260506123200 | 21 | 147 | 6.4 | 16.1 | 0.00 | 0.00 | 0.00 | 67 | 1013.4 |
| 20260506122952 | 21 | 124 | 6.4 | 16.1 | 0.00 | 0.00 | 0.00 | 67 | 1013.4 |
| 20260506122759 | 21 | 136 | 6.4 | 11.3 | 0.00 | 0.00 | 0.00 | 66 | 1013.5 |
| 20260506122543 | 21 | 119 | 6.4 | 11.3 | 0.00 | 0.00 | 0.00 | 66 | 1013.5 |
| 20260506122341 | 21 | 140 | 6.4 | 11.3 | 0.00 | 0.00 | 0.00 | 65 | 1013.5 |
| 20260506122143 | 21 | 151 | 6.4 | 11.3 | 0.00 | 0.00 | 0.00 | 65 | 1013.5 |
| 20260506121950 | 21 | 144 | 6.4 | 11.3 | 0.00 | 0.00 | 0.00 | 65 | 1013.5 |
| 20260506121607 | 21 | 165 | 6.4 | 11.3 | 0.00 | 0.00 | 0.00 | 64 | 1013.5 |
| 20260506121432 | 21 | 164 | 6.4 | 11.3 | 0.00 | 0.00 | 0.00 | 64 | 1013.8 |
| 20260506121131 | 21 | 137 | 6.4 | 11.3 | 0.00 | 0.00 | 0.00 | 64 | 1013.8 |
| 20260506120934 | 21 | 124 | 6.4 | 11.3 | 0.00 | 0.00 | 0.00 | 63 | 1013.8 |
| 20260506120741 | 21 | 174 | 6.4 | 11.3 | 0.00 | 0.00 | 0.00 | 63 | 1013.8 |
| 20260506120541 | 21 | 136 | 6.4 | 11.3 | 0.00 | 0.00 | 0.00 | 61 | 1013.8 |
| 20260506120348 | 21 | 179 | 6.4 | 12.9 | 0.00 | 0.00 | 0.00 | 61 | 1013.8 |
| 20260506120132 | 21 | 160 | 6.4 | 12.9 | 0.00 | 0.00 | 0.00 | 61 | 1013.8 |
| 20260506115935 | 21 | 148 | 6.4 | 12.9 | 0.00 | 0.00 | 0.00 | 61 | 1013.8 |
| 20260506115729 | 21 | 171 | 6.4 | 12.9 | 0.00 | 0.00 | 0.00 | 61 | 1013.9 |
| 20260506115530 | 21 | 157 | 6.4 | 12.9 | 0.00 | 0.00 | 0.00 | 61 | 1013.9 |
| 20260506115330 | 21 | 232 | 6.4 | 12.9 | 0.00 | 0.00 | 0.00 | 60 | 1013.9 |
| 20260506115126 | 21 | 144 | 6.4 | 12.9 | 0.00 | 0.00 | 0.00 | 60 | 1013.9 |
| 20260506114937 | 21 | 121 | 4.8 | 12.9 | 0.00 | 0.00 | 0.00 | 59 | 1013.9 |
| 20260506114725 | 21 | 103 | 4.8 | 11.3 | 0.00 | 0.00 | 0.00 | 61 | 1013.9 |
| 20260506114525 | 21 | 131 | 4.8 | 11.3 | 0.00 | 0.00 | 0.00 | 62 | 1013.9 |
| 20260506114323 | 21 | 138 | 4.8 | 11.3 | 0.00 | 0.00 | 0.00 | 63 | 1014.0 |
| 20260506114120 | 21 | 147 | 4.8 | 11.3 | 0.00 | 0.00 | 0.00 | 63 | 1014.0 |
| 20260506113919 | 21 | 140 | 4.8 | 11.3 | 0.00 | 0.00 | 0.00 | 64 | 1014.0 |
| 20260506113720 | 21 | 114 | 6.4 | 11.3 | 0.00 | 0.00 | 0.00 | 64 | 1014.0 |
| 20260506113522 | 21 | 144 | 4.8 | 11.3 | 0.00 | 0.00 | 0.00 | 64 | 1014.0 |
| 20260506113319 | 21 | 128 | 6.4 | 11.3 | 0.00 | 0.00 | 0.00 | 65 | 1014.0 |
| 20260506113112 | 20 | 137 | 6.4 | 11.3 | 0.00 | 0.00 | 0.00 | 65 | 1014.0 |
| 20260506112912 | 20 | 123 | 6.4 | 11.3 | 0.00 | 0.00 | 0.00 | 66 | 1014.0 |
| 20260506112710 | 20 | 110 | 6.4 | 11.3 | 0.00 | 0.00 | 0.00 | 65 | 1014.0 |
| 20260506112505 | 20 | 121 | 8.0 | 11.3 | 0.00 | 0.00 | 0.00 | 65 | 1014.0 |
| 20260506112318 | 20 | 141 | 8.0 | 11.3 | 0.00 | 0.00 | 0.00 | 65 | 1014.0 |
| 20260506112118 | 20 | 114 | 8.0 | 11.3 | 0.00 | 0.00 | 0.00 | 64 | 1014.0 |
| 20260506111931 | 20 | 133 | 8.0 | 11.3 | 0.00 | 0.00 | 0.00 | 65 | 1014.0 |
| 20260506111732 | 20 | 144 | 6.4 | 11.3 | 0.00 | 0.00 | 0.00 | 66 | 1014.0 |
| 20260506111605 | 20 | 126 | 6.4 | 11.3 | 0.00 | 0.00 | 0.00 | 65 | 1014.0 |
| 20260506111437 | 20 | 133 | 8.0 | 11.3 | 0.00 | 0.00 | 0.00 | 65 | 1014.1 |
| 20260506111200 | 20 | 140 | 6.4 | 11.3 | 0.00 | 0.00 | 0.00 | 65 | 1014.1 |
| 20260506110908 | 20 | 138 | 6.4 | 11.3 | 0.00 | 0.00 | 0.00 | 66 | 1014.1 |
| 20260506110713 | 20 | 119 | 8.0 | 11.3 | 0.00 | 0.00 | 0.00 | 66 | 1014.1 |
| 20260506110538 | 20 | 116 | 8.0 | 11.3 | 0.00 | 0.00 | 0.00 | 66 | 1014.1 |
| 20260506110406 | 20 | 128 | 6.4 | 11.3 | 0.00 | 0.00 | 0.00 | 66 | 1014.1 |
| 20260506110104 | 20 | 116 | 6.4 | 11.3 | 0.00 | 0.00 | 0.00 | 65 | 1014.1 |
| 20260506105904 | 20 | 131 | 6.4 | 11.3 | 0.00 | 0.00 | 0.00 | 65 | 1014.1 |
| 20260506105659 | 20 | 114 | 6.4 | 11.3 | 0.00 | 0.00 | 0.00 | 65 | 1014.1 |
| 20260506105503 | 21 | 130 | 6.4 | 12.9 | 0.00 | 0.00 | 0.00 | 66 | 1014.1 |
| 20260506105259 | 20 | 119 | 8.0 | 12.9 | 0.00 | 0.00 | 0.00 | 65 | 1014.1 |
| 20260506105052 | 20 | 144 | 8.0 | 12.9 | 0.00 | 0.00 | 0.00 | 65 | 1014.1 |
| 20260506104858 | 20 | 124 | 8.0 | 12.9 | 0.00 | 0.00 | 0.00 | 65 | 1014.1 |
| 20260506104653 | 20 | 123 | 8.0 | 12.9 | 0.00 | 0.00 | 0.00 | 63 | 1014.1 |
| 20260506104450 | 20 | 127 | 8.0 | 12.9 | 0.00 | 0.00 | 0.00 | 63 | 1014.1 |
| 20260506104254 | 20 | 165 | 8.0 | 12.9 | 0.00 | 0.00 | 0.00 | 62 | 1014.3 |
| 20260506104056 | 20 | 140 | 8.0 | 12.9 | 0.00 | 0.00 | 0.00 | 62 | 1014.3 |
| 20260506103903 | 20 | 124 | 6.4 | 12.9 | 0.00 | 0.00 | 0.00 | 62 | 1014.3 |
| 20260506103657 | 20 | 119 | 6.4 | 11.3 | 0.00 | 0.00 | 0.00 | 61 | 1014.3 |
| 20260506103501 | 20 | 137 | 6.4 | 11.3 | 0.00 | 0.00 | 0.00 | 61 | 1014.3 |
| 20260506103304 | 20 | 133 | 6.4 | 11.3 | 0.00 | 0.00 | 0.00 | 61 | 1014.3 |
| 20260506103109 | 20 | 114 | 6.4 | 9.7 | 0.00 | 0.00 | 0.00 | 61 | 1014.3 |
| 20260506102936 | 20 | 119 | 6.4 | 9.7 | 0.00 | 0.00 | 0.00 | 60 | 1014.4 |
| 20260506102644 | 20 | 119 | 6.4 | 9.7 | 0.00 | 0.00 | 0.00 | 60 | 1014.4 |
| 20260506102442 | 20 | 137 | 6.4 | 9.7 | 0.00 | 0.00 | 0.00 | 59 | 1014.4 |
| 20260506102254 | 20 | 121 | 4.8 | 9.7 | 0.00 | 0.00 | 0.00 | 60 | 1014.4 |
| 20260506102108 | 21 | 148 | 4.8 | 9.7 | 0.00 | 0.00 | 0.00 | 60 | 1014.4 |
| 20260506101937 | 21 | 136 | 4.8 | 9.7 | 0.00 | 0.00 | 0.00 | 61 | 1014.4 |
| 20260506101640 | 21 | 141 | 3.2 | 9.7 | 0.00 | 0.00 | 0.00 | 61 | 1014.4 |
| 20260506101428 | 21 | 136 | 3.2 | 9.7 | 0.00 | 0.00 | 0.00 | 65 | 1014.4 |
| 20260506101236 | 21 | 119 | 1.6 | 9.7 | 0.00 | 0.00 | 0.00 | 65 | 1014.4 |
| 20260506101030 | 21 | 148 | 1.6 | 6.4 | 0.00 | 0.00 | 0.00 | 65 | 1014.4 |
| 20260506100833 | 21 | 202 | 1.6 | 6.4 | 0.00 | 0.00 | 0.00 | 66 | 1014.4 |
| 20260506100650 | 21 | 130 | 1.6 | 6.4 | 0.00 | 0.00 | 0.00 | 67 | 1014.4 |
| 20260506100514 | 21 | 127 | 1.6 | 6.4 | 0.00 | 0.00 | 0.00 | 68 | 1014.4 |
| 20260506100338 | 21 | 80 | 1.6 | 6.4 | 0.00 | 0.00 | 0.00 | 69 | 1014.4 |
| 20260506100012 | 21 | 95 | 1.6 | 4.8 | 0.00 | 0.00 | 0.00 | 69 | 1014.4 |
| 20260506095812 | 21 | 109 | 1.6 | 8.0 | 0.00 | 0.00 | 0.00 | 69 | 1014.6 |
| 20260506095609 | 21 | 97 | 3.2 | 9.7 | 0.00 | 0.00 | 0.00 | 69 | 1014.6 |
| 20260506095409 | 21 | 92 | 4.8 | 9.7 | 0.00 | 0.00 | 0.00 | 69 | 1014.6 |
| 20260506095009 | 20 | 79 | 3.2 | 9.7 | 0.00 | 0.00 | 0.00 | 68 | 1014.6 |
| 20260506094835 | 20 | 97 | 3.2 | 9.7 | 0.00 | 0.00 | 0.00 | 68 | 1014.6 |
| 20260506094611 | 21 | 99 | 1.6 | 9.7 | 0.00 | 0.00 | 0.00 | 68 | 1014.6 |
| 20260506094411 | 20 | 99 | 1.6 | 4.8 | 0.00 | 0.00 | 0.00 | 69 | 1014.7 |
| 20260506094147 | 20 | 127 | 1.6 | 8.0 | 0.00 | 0.00 | 0.00 | 69 | 1014.7 |
| 20260506093945 | 20 | 141 | 3.2 | 9.7 | 0.00 | 0.00 | 0.00 | 70 | 1014.7 |
| 20260506093757 | 20 | 130 | 4.8 | 9.7 | 0.00 | 0.00 | 0.00 | 70 | 1014.7 |
| 20260506093550 | 20 | 104 | 4.8 | 9.7 | 0.00 | 0.00 | 0.00 | 69 | 1014.7 |
| 20260506093340 | 20 | 113 | 6.4 | 9.7 | 0.00 | 0.00 | 0.00 | 69 | 1014.7 |
| 20260506093152 | 20 | 90 | 4.8 | 9.7 | 0.00 | 0.00 | 0.00 | 69 | 1014.7 |
| 20260506092945 | 20 | 107 | 4.8 | 9.7 | 0.00 | 0.00 | 0.00 | 68 | 1014.7 |
| 20260506092742 | 20 | 104 | 4.8 | 9.7 | 0.00 | 0.00 | 0.00 | 68 | 1014.7 |
| 20260506092541 | 20 | 107 | 3.2 | 9.7 | 0.00 | 0.00 | 0.00 | 68 | 1014.7 |
| 20260506092336 | 20 | 109 | 1.6 | 8.0 | 0.00 | 0.00 | 0.00 | 68 | 1014.7 |
| 20260506092138 | 20 | 78 | 1.6 | 4.8 | 0.00 | 0.00 | 0.00 | 68 | 1014.7 |
| 20260506091928 | 20 | 95 | 1.6 | 4.8 | 0.00 | 0.00 | 0.00 | 68 | 1014.7 |
| 20260506091732 | 20 | 99 | 0.0 | 3.2 | 0.00 | 0.00 | 0.00 | 69 | 1014.7 |
| 20260506091520 | 20 | 93 | 0.0 | 3.2 | 0.00 | 0.00 | 0.00 | 69 | 1014.7 |
| 20260506091315 | 20 | 119 | 1.6 | 3.2 | 0.00 | 0.00 | 0.00 | 69 | 1014.6 |
| 20260506091113 | 20 | 147 | 1.6 | 4.8 | 0.00 | 0.00 | 0.00 | 69 | 1014.6 |
| 20260506090905 | 20 | 110 | 1.6 | 4.8 | 0.00 | 0.00 | 0.00 | 69 | 1014.6 |
| 20260506090700 | 20 | 119 | 1.6 | 4.8 | 0.00 | 0.00 | 0.00 | 69 | 1014.6 |
| 20260506090459 | 20 | 145 | 3.2 | 4.8 | 0.00 | 0.00 | 0.00 | 69 | 1014.6 |
| 20260506090255 | 20 | 112 | 3.2 | 6.4 | 0.00 | 0.00 | 0.00 | 68 | 1014.6 |
| 20260506090049 | 20 | 117 | 3.2 | 6.4 | 0.00 | 0.00 | 0.00 | 68 | 1014.6 |
| 20260506085844 | 20 | 119 | 1.6 | 6.4 | 0.00 | 0.00 | 0.00 | 68 | 1014.7 |
| 20260506085640 | 20 | 109 | 1.6 | 6.4 | 0.00 | 0.00 | 0.00 | 69 | 1014.7 |
| 20260506085441 | 20 | 113 | 1.6 | 6.4 | 0.00 | 0.00 | 0.00 | 69 | 1014.7 |
| 20260506085230 | 20 | 107 | 1.6 | 4.8 | 0.00 | 0.00 | 0.00 | 69 | 1014.7 |
| 20260506085023 | 20 | 133 | 1.6 | 6.4 | 0.00 | 0.00 | 0.00 | 70 | 1014.7 |
| 20260506084829 | 20 | 112 | 1.6 | 6.4 | 0.00 | 0.00 | 0.00 | 70 | 1014.7 |
| 20260506084615 | 19 | 137 | 3.2 | 8.0 | 0.00 | 0.00 | 0.00 | 70 | 1014.6 |
| 20260506084434 | 19 | 103 | 3.2 | 8.0 | 0.00 | 0.00 | 0.00 | 70 | 1014.5 |
| 20260506084316 | 19 | 83 | 3.2 | 8.0 | 0.00 | 0.00 | 0.00 | 70 | 1014.5 |
| 20260506084134 | 19 | 110 | 3.2 | 8.0 | 0.00 | 0.00 | 0.00 | 70 | 1014.5 |
| 20260506084015 | 19 | 103 | 3.2 | 8.0 | 0.00 | 0.00 | 0.00 | 69 | 1014.5 |
| 20260506083732 | 19 | 92 | 1.6 | 8.0 | 0.00 | 0.00 | 0.00 | 69 | 1014.5 |
| 20260506083608 | 19 | 99 | 1.6 | 8.0 | 0.00 | 0.00 | 0.00 | 69 | 1014.5 |
| 20260506083409 | 20 | 102 | 1.6 | 4.8 | 0.00 | 0.00 | 0.00 | 69 | 1014.6 |
| 20260506083006 | 19 | 113 | 1.6 | 4.8 | 0.00 | 0.00 | 0.00 | 69 | 1014.6 |
| 20260506082800 | 19 | 112 | 1.6 | 4.8 | 0.00 | 0.00 | 0.00 | 69 | 1014.5 |
| 20260506082559 | 19 | 103 | 1.6 | 4.8 | 0.00 | 0.00 | 0.00 | 69 | 1014.5 |
| 20260506082355 | 19 | 124 | 1.6 | 4.8 | 0.00 | 0.00 | 0.00 | 69 | 1014.5 |
| 20260506082027 | 19 | 107 | 1.6 | 3.2 | 0.00 | 0.00 | 0.00 | 69 | 1014.5 |
| 20260506081905 | 19 | 106 | 1.6 | 3.2 | 0.00 | 0.00 | 0.00 | 69 | 1014.5 |
| 20260506081617 | 19 | 104 | 1.6 | 4.8 | 0.00 | 0.00 | 0.00 | 69 | 1014.5 |
| 20260506081447 | 19 | 104 | 0.0 | 4.8 | 0.00 | 0.00 | 0.00 | 69 | 1014.7 |
| 20260506081206 | 19 | 103 | 0.0 | 4.8 | 0.00 | 0.00 | 0.00 | 70 | 1014.7 |
| 20260506080930 | 19 | 103 | 1.6 | 4.8 | 0.00 | 0.00 | 0.00 | 70 | 1014.7 |
| 20260506080732 | 19 | 109 | 1.6 | 4.8 | 0.00 | 0.00 | 0.00 | 69 | 1014.7 |
| 20260506080528 | 19 | 88 | 1.6 | 8.0 | 0.00 | 0.00 | 0.00 | 70 | 1014.7 |
| 20260506080321 | 19 | 89 | 3.2 | 8.0 | 0.00 | 0.00 | 0.00 | 70 | 1014.7 |
| 20260506080132 | 19 | 86 | 3.2 | 8.0 | 0.00 | 0.00 | 0.00 | 70 | 1014.7 |
| 20260506073331 | 18 | 40 | 1.6 | 8.0 | 0.00 | 0.00 | 0.00 | 70 | 1014.5 |
| 20260506073150 | 18 | 54 | 1.6 | 6.4 | 0.00 | 0.00 | 0.00 | 70 | 1014.5 |
| 20260506073021 | 18 | 37 | 1.6 | 9.7 | 0.00 | 0.00 | 0.00 | 71 | 1014.5 |
| 20260506072900 | 18 | 52 | 3.2 | 11.3 | 0.00 | 0.00 | 0.00 | 71 | 1014.5 |
| 20260506072735 | 18 | 340 | 3.2 | 11.3 | 0.00 | 0.00 | 0.00 | 71 | 1014.5 |
| 20260506072551 | 18 | 28 | 4.8 | 11.3 | 0.00 | 0.00 | 0.00 | 72 | 1014.5 |
| 20260506072405 | 18 | 17 | 6.4 | 11.3 | 0.00 | 0.00 | 0.00 | 72 | 1014.5 |
| 20260506072058 | 18 | 3 | 8.0 | 11.3 | 0.00 | 0.00 | 0.00 | 71 | 1014.5 |
| 20260506071805 | 17 | 20 | 8.0 | 11.3 | 0.00 | 0.00 | 0.00 | 71 | 1014.7 |
| 20260506071457 | 17 | 17 | 8.0 | 11.3 | 0.00 | 0.00 | 0.00 | 71 | 1014.7 |
| 20260506071116 | 17 | 45 | 8.0 | 11.3 | 0.00 | 0.00 | 0.00 | 71 | 1014.7 |
| 20260506070847 | 17 | 20 | 8.0 | 11.3 | 0.00 | 0.00 | 0.00 | 71 | 1014.7 |
| 20260506070642 | 17 | 13 | 8.0 | 11.3 | 0.00 | 0.00 | 0.00 | 72 | 1014.7 |
| 20260506070433 | 17 | 18 | 8.0 | 11.3 | 0.00 | 0.00 | 0.00 | 72 | 1014.7 |
| 20260506070308 | 17 | 17 | 8.0 | 12.9 | 0.00 | 0.00 | 0.00 | 72 | 1014.7 |
| 20260506062339 | 17 | 356 | 6.4 | 12.9 | 0.00 | 0.00 | 0.00 | 72 | 1014.8 |
| 20260506062149 | 17 | 49 | 6.4 | 12.9 | 0.00 | 0.00 | 0.00 | 72 | 1014.8 |
| 20260506061937 | 17 | 10 | 6.4 | 11.3 | 0.00 | 0.00 | 0.00 | 73 | 1014.8 |
| 20260506061738 | 17 | 20 | 4.8 | 11.3 | 0.00 | 0.00 | 0.00 | 73 | 1014.8 |
| 20260506061539 | 17 | 25 | 6.4 | 12.9 | 0.00 | 0.00 | 0.00 | 73 | 1014.8 |
| 20260506061343 | 17 | 18 | 6.4 | 12.9 | 0.00 | 0.00 | 0.00 | 74 | 1014.8 |
| 20260506061141 | 17 | 337 | 6.4 | 12.9 | 0.00 | 0.00 | 0.00 | 74 | 1014.8 |
| 20260506060944 | 17 | 10 | 6.4 | 12.9 | 0.00 | 0.00 | 0.00 | 74 | 1014.8 |
| 20260506060742 | 17 | 25 | 6.4 | 12.9 | 0.00 | 0.00 | 0.00 | 73 | 1014.8 |
| 20260506060545 | 17 | 41 | 6.4 | 12.9 | 0.00 | 0.00 | 0.00 | 74 | 1014.8 |
| 20260506060345 | 17 | 30 | 6.4 | 12.9 | 0.00 | 0.00 | 0.00 | 74 | 1014.8 |
| 20260506060205 | 17 | 35 | 6.4 | 12.9 | 0.00 | 0.00 | 0.00 | 74 | 1014.8 |
| 20260506051352 | 16 | 0 | 4.8 | 12.9 | 0.00 | 0.00 | 0.00 | 77 | 1014.7 |
| 20260506051211 | 16 | 339 | 4.8 | 11.3 | 0.00 | 0.00 | 0.00 | 78 | 1014.7 |
| 20260506051024 | 16 | 319 | 3.2 | 11.3 | 0.00 | 0.00 | 0.00 | 78 | 1014.7 |
| 20260506050847 | 16 | 16 | 3.2 | 11.3 | 0.00 | 0.00 | 0.00 | 78 | 1014.7 |
| 20260506050553 | 16 | 350 | 3.2 | 8.0 | 0.00 | 0.00 | 0.00 | 79 | 1014.7 |
| 20260506050352 | 16 | 306 | 1.6 | 8.0 | 0.00 | 0.00 | 0.00 | 79 | 1014.7 |
| 20260506050214 | 16 | 333 | 1.6 | 8.0 | 0.00 | 0.00 | 0.00 | 79 | 1014.7 |
| 20260506044833 | 15 | 326 | 1.6 | 4.8 | 0.00 | 0.00 | 0.00 | 80 | 1014.4 |
| 20260506044629 | 15 | 332 | 1.6 | 4.8 | 0.00 | 0.00 | 0.00 | 80 | 1014.4 |
| 20260506044419 | 15 | 337 | 1.6 | 4.8 | 0.00 | 0.00 | 0.00 | 80 | 1014.4 |
| 20260506044214 | 15 | 342 | 1.6 | 4.8 | 0.00 | 0.00 | 0.00 | 80 | 1014.3 |
| 20260506044014 | 15 | 347 | 1.6 | 4.8 | 0.00 | 0.00 | 0.00 | 80 | 1014.3 |
| 20260506043803 | 15 | 323 | 1.6 | 6.4 | 0.00 | 0.00 | 0.00 | 80 | 1014.3 |
| 20260506043609 | 15 | 323 | 1.6 | 6.4 | 0.00 | 0.00 | 0.00 | 80 | 1014.3 |
| 20260506043414 | 15 | 320 | 0.0 | 6.4 | 0.00 | 0.00 | 0.00 | 80 | 1014.3 |
| 20260506043149 | 15 | 315 | 0.0 | 6.4 | 0.00 | 0.00 | 0.00 | 80 | 1014.3 |
| 20260506042950 | 15 | 340 | 0.0 | 4.8 | 0.00 | 0.00 | 0.00 | 80 | 1014.3 |
| 20260506042811 | 15 | 322 | 0.0 | 3.2 | 0.00 | 0.00 | 0.00 | 80 | 1014.3 |
| 20260506042659 | 15 | 316 | 0.0 | 3.2 | 0.00 | 0.00 | 0.00 | 80 | 1014.3 |
| 20260506042341 | 15 | 322 | 0.0 | 3.2 | 0.00 | 0.00 | 0.00 | 80 | 1014.3 |
| 20260506042139 | 15 | 322 | 0.0 | 4.8 | 0.00 | 0.00 | 0.00 | 80 | 1014.3 |
| 20260506041926 | 15 | 296 | 0.0 | 4.8 | 0.00 | 0.00 | 0.00 | 80 | 1014.3 |
| 20260506041716 | 15 | 295 | 0.0 | 4.8 | 0.00 | 0.00 | 0.00 | 81 | 1014.3 |
| 20260506041246 | 15 | 294 | 1.6 | 8.0 | 0.00 | 0.00 | 0.00 | 80 | 1014.2 |
| 20260506041034 | 14 | 294 | 1.6 | 8.0 | 0.00 | 0.00 | 0.00 | 81 | 1014.2 |
| 20260506040824 | 14 | 320 | 1.6 | 8.0 | 0.00 | 0.00 | 0.00 | 81 | 1014.2 |
| 20260506040657 | 14 | 322 | 0.0 | 4.8 | 0.00 | 0.00 | 0.00 | 81 | 1014.2 |
| 20260506040358 | 14 | 325 | 0.0 | 4.8 | 0.00 | 0.00 | 0.00 | 81 | 1014.2 |
| 20260506040116 | 14 | 325 | 0.0 | 4.8 | 0.00 | 0.00 | 0.00 | 81 | 1014.2 |
| 20260506035911 | 14 | 357 | 0.0 | 3.2 | 0.00 | 0.00 | 0.00 | 80 | 1014.2 |
| 20260506035653 | 15 | 23 | 0.0 | 3.2 | 0.00 | 0.00 | 0.00 | 81 | 1014.0 |
| 20260506035458 | 14 | 31 | 0.0 | 0.0 | 0.00 | 0.00 | 0.00 | 81 | 1014.0 |
| 20260506035235 | 14 | 31 | 0.0 | 0.0 | 0.00 | 0.00 | 0.00 | 80 | 1014.0 |
| 20260506035045 | 14 | 31 | 0.0 | 0.0 | 0.00 | 0.00 | 0.00 | 80 | 1014.0 |
| 20260506034849 | 14 | 31 | 0.0 | 0.0 | 0.00 | 0.00 | 0.00 | 79 | 1014.0 |
| 20260506034558 | 14 | 31 | 0.0 | 0.0 | 0.00 | 0.00 | 0.00 | 79 | 1014.0 |
| 20260506034322 | 14 | 31 | 0.0 | 0.0 | 0.00 | 0.00 | 0.00 | 80 | 1013.8 |
| 20260506034134 | 14 | 31 | 0.0 | 0.0 | 0.00 | 0.00 | 0.00 | 79 | 1013.8 |
| 20260506033730 | 14 | 31 | 0.0 | 0.0 | 0.00 | 0.00 | 0.00 | 79 | 1013.8 |
| 20260506033605 | 14 | 285 | 0.0 | 3.2 | 0.00 | 0.00 | 0.00 | 78 | 1013.8 |
| 20260506033424 | 14 | 285 | 0.0 | 3.2 | 0.00 | 0.00 | 0.00 | 78 | 1013.8 |
| 20260506033305 | 14 | 285 | 1.6 | 8.0 | 0.00 | 0.00 | 0.00 | 78 | 1013.8 |
| 20260506033131 | 14 | 285 | 1.6 | 8.0 | 0.00 | 0.00 | 0.00 | 78 | 1013.7 |
| 20260506033002 | 14 | 285 | 1.6 | 8.0 | 0.00 | 0.00 | 0.00 | 78 | 1013.7 |
| 20260506032812 | 15 | 308 | 1.6 | 8.0 | 0.00 | 0.00 | 0.00 | 78 | 1013.7 |
| 20260506032546 | 15 | 291 | 1.6 | 8.0 | 0.00 | 0.00 | 0.00 | 78 | 1013.7 |
| 20260506032306 | 15 | 309 | 1.6 | 8.0 | 0.00 | 0.00 | 0.00 | 79 | 1013.7 |
| 20260506032106 | 15 | 285 | 1.6 | 8.0 | 0.00 | 0.00 | 0.00 | 78 | 1013.7 |
| 20260506031900 | 15 | 285 | 3.2 | 8.0 | 0.00 | 0.00 | 0.00 | 78 | 1013.7 |
| 20260506031639 | 15 | 278 | 3.2 | 8.0 | 0.00 | 0.00 | 0.00 | 78 | 1013.7 |
| 20260506031434 | 15 | 299 | 1.6 | 8.0 | 0.00 | 0.00 | 0.00 | 78 | 1013.7 |
| 20260506031209 | 15 | 284 | 1.6 | 8.0 | 0.00 | 0.00 | 0.00 | 78 | 1013.7 |
| 20260506031032 | 15 | 272 | 1.6 | 8.0 | 0.00 | 0.00 | 0.00 | 78 | 1013.7 |
| 20260506030841 | 15 | 271 | 1.6 | 8.0 | 0.00 | 0.00 | 0.00 | 79 | 1013.7 |
| 20260506030647 | 15 | 278 | 1.6 | 8.0 | 0.00 | 0.00 | 0.00 | 79 | 1013.7 |
| 20260506030451 | 15 | 294 | 1.6 | 8.0 | 0.00 | 0.00 | 0.00 | 79 | 1013.7 |
| 20260506030239 | 15 | 275 | 1.6 | 8.0 | 0.00 | 0.00 | 0.00 | 79 | 1013.6 |
| 20260506030020 | 15 | 284 | 3.2 | 8.0 | 0.00 | 0.00 | 0.00 | 79 | 1013.6 |
| 20260506025801 | 15 | 261 | 1.6 | 8.0 | 0.00 | 0.00 | 0.00 | 79 | 1013.6 |
| 20260506025545 | 15 | 271 | 1.6 | 8.0 | 0.00 | 0.00 | 0.00 | 79 | 1013.6 |
| 20260506025341 | 15 | 291 | 1.6 | 8.0 | 0.00 | 0.00 | 0.00 | 80 | 1013.6 |
| 20260506025142 | 15 | 357 | 1.6 | 8.0 | 0.00 | 0.00 | 0.00 | 80 | 1013.6 |
| 20260506024815 | 15 | 357 | 1.6 | 6.4 | 0.00 | 0.00 | 0.00 | 80 | 1013.6 |
| 20260506024536 | 15 | 357 | 1.6 | 4.8 | 0.00 | 0.00 | 0.00 | 80 | 1013.6 |
| 20260506024326 | 15 | 357 | 1.6 | 4.8 | 0.00 | 0.00 | 0.00 | 80 | 1013.6 |
| 20260506024104 | 15 | 357 | 1.6 | 8.0 | 0.00 | 0.00 | 0.00 | 80 | 1013.6 |
| 20260506023906 | 15 | 357 | 0.0 | 8.0 | 0.00 | 0.00 | 0.00 | 80 | 1013.6 |
| 20260506023711 | 15 | 359 | 1.6 | 8.0 | 0.00 | 0.00 | 0.00 | 80 | 1013.6 |
| 20260506023502 | 15 | 357 | 1.6 | 8.0 | 0.00 | 0.00 | 0.00 | 80 | 1013.6 |
| 20260506023217 | 15 | 357 | 0.0 | 8.0 | 0.00 | 0.00 | 0.00 | 80 | 1013.6 |
| 20260506023033 | 15 | 357 | 0.0 | 3.2 | 0.00 | 0.00 | 0.00 | 80 | 1013.6 |
| 20260506022556 | 15 | 357 | 1.6 | 6.4 | 0.00 | 0.00 | 0.00 | 81 | 1013.7 |
| 20260506022414 | 15 | 357 | 1.6 | 8.0 | 0.00 | 0.00 | 0.00 | 81 | 1013.7 |
| 20260506022212 | 15 | 357 | 3.2 | 8.0 | 0.00 | 0.00 | 0.00 | 81 | 1013.7 |
| 20260506021930 | 15 | 357 | 1.6 | 8.0 | 0.00 | 0.00 | 0.00 | 81 | 1013.7 |
| 20260506021753 | 15 | 357 | 3.2 | 8.0 | 0.00 | 0.00 | 0.00 | 81 | 1013.7 |
| 20260506021604 | 15 | 274 | 3.2 | 8.0 | 0.00 | 0.00 | 0.00 | 82 | 1013.7 |
| 20260506021345 | 15 | 280 | 3.2 | 8.0 | 0.00 | 0.00 | 0.00 | 82 | 1013.8 |
| 20260506021126 | 14 | 284 | 3.2 | 8.0 | 0.00 | 0.00 | 0.00 | 82 | 1013.8 |
| 20260506020923 | 14 | 272 | 3.2 | 8.0 | 0.00 | 0.00 | 0.00 | 82 | 1013.8 |
| 20260506020736 | 14 | 287 | 3.2 | 8.0 | 0.00 | 0.00 | 0.00 | 83 | 1013.8 |
| 20260506020520 | 14 | 271 | 1.6 | 6.4 | 0.00 | 0.00 | 0.00 | 83 | 1013.8 |
| 20260506020317 | 14 | 277 | 1.6 | 8.0 | 0.00 | 0.00 | 0.00 | 83 | 1013.8 |
| 20260506020110 | 14 | 258 | 1.6 | 8.0 | 0.00 | 0.00 | 0.00 | 83 | 1013.8 |
| 20260506015904 | 14 | 257 | 1.6 | 8.0 | 0.00 | 0.00 | 0.00 | 83 | 1013.7 |
| 20260506015658 | 14 | 263 | 1.6 | 8.0 | 0.00 | 0.00 | 0.00 | 84 | 1013.7 |
| 20260506015436 | 14 | 261 | 1.6 | 6.4 | 0.00 | 0.00 | 0.00 | 84 | 1013.7 |
| 20260506015234 | 14 | 254 | 1.6 | 6.4 | 0.00 | 0.00 | 0.00 | 84 | 1013.7 |
| 20260506015048 | 14 | 256 | 1.6 | 6.4 | 0.00 | 0.00 | 0.00 | 84 | 1013.7 |
| 20260506014830 | 14 | 357 | 1.6 | 8.0 | 0.00 | 0.00 | 0.00 | 84 | 1013.7 |
| 20260506014616 | 14 | 253 | 3.2 | 8.0 | 0.00 | 0.00 | 0.00 | 85 | 1013.7 |
| 20260506014414 | 14 | 270 | 3.2 | 8.0 | 0.00 | 0.00 | 0.00 | 85 | 1013.7 |
| 20260506014218 | 14 | 232 | 3.2 | 8.0 | 0.00 | 0.00 | 0.00 | 85 | 1013.7 |
| 20260506014019 | 14 | 268 | 3.2 | 8.0 | 0.00 | 0.00 | 0.00 | 85 | 1013.7 |
| 20260506013818 | 14 | 250 | 3.2 | 8.0 | 0.00 | 0.00 | 0.00 | 85 | 1013.7 |
| 20260506013612 | 14 | 233 | 1.6 | 8.0 | 0.00 | 0.00 | 0.00 | 86 | 1013.7 |
| 20260506013421 | 14 | 239 | 1.6 | 8.0 | 0.00 | 0.00 | 0.00 | 86 | 1013.7 |
| 20260506013219 | 14 | 281 | 1.6 | 8.0 | 0.00 | 0.00 | 0.00 | 86 | 1013.7 |
| 20260506013017 | 14 | 251 | 1.6 | 8.0 | 0.00 | 0.00 | 0.00 | 86 | 1013.7 |
| 20260506012811 | 14 | 243 | 1.6 | 8.0 | 0.00 | 0.00 | 0.00 | 86 | 1013.6 |
| 20260506012617 | 14 | 254 | 1.6 | 6.4 | 0.00 | 0.00 | 0.00 | 86 | 1013.6 |
| 20260506012432 | 14 | 246 | 1.6 | 8.0 | 0.00 | 0.00 | 0.00 | 86 | 1013.6 |
| 20260506012311 | 14 | 264 | 1.6 | 8.0 | 0.00 | 0.00 | 0.00 | 86 | 1013.6 |
| 20260506011959 | 14 | 244 | 1.6 | 8.0 | 0.00 | 0.00 | 0.00 | 86 | 1013.6 |
| 20260506011756 | 14 | 246 | 1.6 | 8.0 | 0.00 | 0.00 | 0.00 | 86 | 1013.6 |
| 20260506011556 | 14 | 254 | 1.6 | 8.0 | 0.00 | 0.00 | 0.00 | 86 | 1013.6 |
| 20260506011349 | 14 | 256 | 1.6 | 4.8 | 0.00 | 0.00 | 0.00 | 86 | 1013.7 |
| 20260506011156 | 14 | 241 | 1.6 | 8.0 | 0.00 | 0.00 | 0.00 | 86 | 1013.7 |
| 20260506011000 | 14 | 234 | 1.6 | 8.0 | 0.00 | 0.00 | 0.00 | 86 | 1013.7 |
| 20260506010732 | 14 | 253 | 1.6 | 8.0 | 0.00 | 0.00 | 0.00 | 86 | 1013.7 |
| 20260506010527 | 14 | 263 | 1.6 | 8.0 | 0.00 | 0.00 | 0.00 | 87 | 1013.7 |
| 20260506010328 | 14 | 267 | 1.6 | 8.0 | 0.00 | 0.00 | 0.00 | 87 | 1013.7 |
| 20260506010139 | 14 | 264 | 1.6 | 8.0 | 0.00 | 0.00 | 0.00 | 87 | 1013.7 |
| 20260506005918 | 14 | 244 | 1.6 | 8.0 | 0.00 | 0.00 | 0.00 | 87 | 1013.7 |
| 20260506005714 | 14 | 275 | 1.6 | 8.0 | 0.00 | 0.00 | 0.00 | 87 | 1013.7 |
| 20260506005535 | 14 | 254 | 1.6 | 8.0 | 0.00 | 0.00 | 0.00 | 88 | 1013.7 |
| 20260506005416 | 14 | 254 | 1.6 | 8.0 | 0.00 | 0.00 | 0.00 | 88 | 1013.7 |
| 20260506004948 | 14 | 250 | 0.0 | 8.0 | 0.00 | 0.00 | 0.00 | 88 | 1013.7 |
| 20260506004811 | 14 | 275 | 0.0 | 4.8 | 0.00 | 0.00 | 0.00 | 88 | 1013.7 |
| 20260506004535 | 14 | 261 | 0.0 | 3.2 | 0.00 | 0.00 | 0.00 | 88 | 1013.7 |
| 20260506004245 | 14 | 240 | 0.0 | 4.8 | 0.00 | 0.00 | 0.00 | 88 | 1013.7 |
| 20260506004012 | 14 | 344 | 0.0 | 4.8 | 0.00 | 0.00 | 0.00 | 88 | 1013.7 |
| 20260506003754 | 14 | 356 | 0.0 | 4.8 | 0.00 | 0.00 | 0.00 | 89 | 1013.7 |
| 20260506003555 | 14 | 357 | 0.0 | 4.8 | 0.00 | 0.00 | 0.00 | 89 | 1013.7 |
| 20260506003349 | 14 | 357 | 0.0 | 3.2 | 0.00 | 0.00 | 0.00 | 89 | 1013.7 |
| 20260506003132 | 14 | 356 | 0.0 | 0.0 | 0.00 | 0.00 | 0.00 | 89 | 1013.7 |
| 20260506002915 | 14 | 356 | 0.0 | 0.0 | 0.00 | 0.00 | 0.00 | 89 | 1013.7 |
| 20260506002716 | 14 | 356 | 0.0 | 0.0 | 0.00 | 0.00 | 0.00 | 89 | 1013.6 |
| 20260506002306 | 14 | 357 | 0.0 | 6.4 | 0.00 | 0.00 | 0.00 | 90 | 1013.6 |
| 20260506002106 | 14 | 357 | 0.0 | 6.4 | 0.00 | 0.00 | 0.00 | 90 | 1013.6 |
| 20260506001903 | 14 | 357 | 0.0 | 6.4 | 0.00 | 0.00 | 0.00 | 90 | 1013.6 |
| 20260506001658 | 14 | 357 | 0.0 | 6.4 | 0.00 | 0.00 | 0.00 | 90 | 1013.6 |
| 20260506001248 | 14 | 359 | 0.0 | 4.8 | 0.00 | 0.00 | 0.00 | 91 | 1013.6 |
| 20260506001044 | 14 | 357 | 0.0 | 3.2 | 0.00 | 0.00 | 0.00 | 91 | 1013.6 |
| 20260506000643 | 14 | 356 | 0.0 | 3.2 | 0.00 | 0.00 | 0.00 | 91 | 1013.6 |
| 20260505235840 | 14 | 359 | 0.0 | 4.8 | 0.00 | 0.00 | 0.00 | 91 | 1013.6 |
| 20260505235630 | 14 | 359 | 1.6 | 4.8 | 0.00 | 0.00 | 0.00 | 91 | 1013.6 |
| 20260505235417 | 14 | 359 | 1.6 | 4.8 | 0.00 | 0.00 | 0.00 | 91 | 1013.6 |
| 20260505235216 | 14 | 359 | 1.6 | 4.8 | 0.00 | 0.00 | 0.00 | 91 | 1013.6 |
| 20260505235012 | 14 | 359 | 1.6 | 4.8 | 0.00 | 0.00 | 0.00 | 91 | 1013.6 |
| 20260505234840 | 14 | 359 | 1.6 | 4.8 | 0.00 | 0.00 | 0.00 | 91 | 1013.6 |
| 20260505234720 | 14 | 357 | 1.6 | 4.8 | 0.00 | 0.00 | 0.00 | 91 | 1013.6 |
| 20260505234404 | 14 | 359 | 1.6 | 6.4 | 0.00 | 0.00 | 0.00 | 91 | 1013.5 |
| 20260505234205 | 14 | 359 | 1.6 | 6.4 | 0.00 | 0.00 | 0.00 | 91 | 1013.5 |
| 20260505233958 | 14 | 357 | 1.6 | 6.4 | 0.00 | 0.00 | 0.00 | 91 | 1013.5 |
| 20260505233756 | 14 | 357 | 1.6 | 6.4 | 0.00 | 0.00 | 0.00 | 91 | 1013.5 |
| 20260505233600 | 14 | 357 | 1.6 | 6.4 | 0.00 | 0.00 | 0.00 | 91 | 1013.5 |
| 20260505233350 | 14 | 357 | 1.6 | 4.8 | 0.00 | 0.00 | 0.00 | 91 | 1013.5 |
| 20260505233145 | 14 | 357 | 1.6 | 4.8 | 0.00 | 0.00 | 0.00 | 91 | 1013.5 |
| 20260505232912 | 14 | 357 | 1.6 | 4.8 | 0.00 | 0.00 | 0.00 | 91 | 1013.5 |
| 20260505232712 | 14 | 357 | 1.6 | 8.0 | 0.00 | 0.00 | 0.00 | 91 | 1013.6 |
| 20260505232318 | 14 | 359 | 1.6 | 8.0 | 0.00 | 0.00 | 0.00 | 91 | 1013.6 |
| 20260505232110 | 14 | 359 | 1.6 | 8.0 | 0.00 | 0.00 | 0.00 | 91 | 1013.6 |
| 20260505231900 | 14 | 359 | 1.6 | 6.4 | 0.00 | 0.00 | 0.00 | 91 | 1013.6 |
| 20260505231704 | 14 | 359 | 1.6 | 6.4 | 0.00 | 0.00 | 0.00 | 91 | 1013.6 |
| 20260505231512 | 14 | 357 | 1.6 | 6.4 | 0.00 | 0.00 | 0.00 | 91 | 1013.6 |
| 20260505231254 | 14 | 359 | 1.6 | 6.4 | 0.00 | 0.00 | 0.00 | 91 | 1013.6 |
| 20260505231101 | 14 | 359 | 1.6 | 6.4 | 0.00 | 0.00 | 0.00 | 91 | 1013.6 |
| 20260505230849 | 14 | 357 | 1.6 | 6.4 | 0.00 | 0.00 | 0.00 | 91 | 1013.6 |
| 20260505230636 | 14 | 357 | 1.6 | 8.0 | 0.00 | 0.00 | 0.00 | 91 | 1013.6 |
| 20260505230433 | 14 | 357 | 1.6 | 8.0 | 0.00 | 0.00 | 0.00 | 91 | 1013.6 |
| 20260505230235 | 14 | 357 | 1.6 | 8.0 | 0.00 | 0.00 | 0.00 | 91 | 1013.6 |
| 20260505230059 | 14 | 359 | 1.6 | 8.0 | 0.00 | 0.00 | 0.00 | 91 | 1013.6 |
| 20260505225806 | 14 | 359 | 1.6 | 8.0 | 0.00 | 0.00 | 0.00 | 91 | 1013.6 |
| 20260505225636 | 14 | 357 | 1.6 | 8.0 | 0.00 | 0.00 | 0.00 | 91 | 1013.6 |
| 20260505225353 | 14 | 357 | 1.6 | 8.0 | 0.00 | 0.00 | 0.00 | 91 | 1013.6 |
| 20260505225208 | 14 | 356 | 1.6 | 8.0 | 0.00 | 0.00 | 0.00 | 91 | 1013.6 |
| 20260505225046 | 14 | 357 | 1.6 | 8.0 | 0.00 | 0.00 | 0.00 | 91 | 1013.6 |
| 20260505224750 | 14 | 357 | 1.6 | 4.8 | 0.00 | 0.00 | 0.00 | 91 | 1013.6 |
| 20260505224541 | 14 | 357 | 1.6 | 4.8 | 0.00 | 0.00 | 0.00 | 91 | 1013.6 |
| 20260505224328 | 14 | 357 | 1.6 | 8.0 | 0.00 | 0.00 | 0.00 | 91 | 1013.6 |
| 20260505224104 | 14 | 357 | 1.6 | 8.0 | 0.00 | 0.00 | 0.00 | 91 | 1013.6 |
| 20260505223659 | 14 | 357 | 1.6 | 8.0 | 0.00 | 0.00 | 0.00 | 91 | 1013.6 |
| 20260505223500 | 14 | 357 | 1.6 | 8.0 | 0.00 | 0.00 | 0.00 | 91 | 1013.6 |
| 20260505223255 | 14 | 356 | 1.6 | 8.0 | 0.00 | 0.00 | 0.00 | 91 | 1013.6 |
| 20260505223058 | 14 | 356 | 1.6 | 8.0 | 0.00 | 0.00 | 0.00 | 91 | 1013.6 |
| 20260505222850 | 14 | 357 | 1.6 | 8.0 | 0.00 | 0.00 | 0.00 | 91 | 1013.6 |
| 20260505222711 | 14 | 356 | 1.6 | 8.0 | 0.00 | 0.00 | 0.00 | 91 | 1013.6 |
| 20260505222550 | 14 | 359 | 1.6 | 8.0 | 0.00 | 0.00 | 0.00 | 91 | 1013.6 |
| 20260505222251 | 14 | 357 | 0.0 | 6.4 | 0.00 | 0.00 | 0.00 | 91 | 1013.6 |
| 20260505222047 | 14 | 357 | 1.6 | 4.8 | 0.00 | 0.00 | 0.00 | 91 | 1013.6 |
| 20260505221838 | 14 | 357 | 0.0 | 4.8 | 0.00 | 0.00 | 0.00 | 91 | 1013.6 |
| 20260505221640 | 14 | 359 | 1.6 | 4.8 | 0.00 | 0.00 | 0.00 | 91 | 1013.6 |
| 20260505221434 | 14 | 359 | 1.6 | 4.8 | 0.00 | 0.00 | 0.00 | 91 | 1013.6 |
| 20260505221230 | 14 | 357 | 1.6 | 4.8 | 0.00 | 0.00 | 0.00 | 91 | 1013.5 |
| 20260505221027 | 14 | 357 | 1.6 | 4.8 | 0.00 | 0.00 | 0.00 | 91 | 1013.5 |
| 20260505220832 | 14 | 357 | 1.6 | 4.8 | 0.00 | 0.00 | 0.00 | 91 | 1013.5 |
| 20260505220624 | 14 | 357 | 1.6 | 4.8 | 0.00 | 0.00 | 0.00 | 91 | 1013.5 |
| 20260505220419 | 15 | 357 | 1.6 | 4.8 | 0.00 | 0.00 | 0.00 | 91 | 1013.5 |
| 20260505220211 | 15 | 359 | 1.6 | 4.8 | 0.00 | 0.00 | 0.00 | 91 | 1013.5 |
| 20260505220013 | 15 | 357 | 1.6 | 4.8 | 0.00 | 0.00 | 0.00 | 91 | 1013.5 |
| 20260505215810 | 15 | 357 | 1.6 | 4.8 | 0.00 | 0.00 | 0.00 | 91 | 1013.3 |
| 20260505215607 | 15 | 357 | 1.6 | 4.8 | 0.00 | 0.00 | 0.00 | 91 | 1013.3 |
| 20260505215414 | 15 | 359 | 1.6 | 4.8 | 0.00 | 0.00 | 0.00 | 91 | 1013.3 |
| 20260505215208 | 15 | 359 | 1.6 | 4.8 | 0.00 | 0.00 | 0.00 | 91 | 1013.3 |
| 20260505215003 | 15 | 357 | 1.6 | 4.8 | 0.00 | 0.00 | 0.00 | 91 | 1013.3 |
| 20260505214800 | 15 | 357 | 1.6 | 4.8 | 0.00 | 0.00 | 0.00 | 91 | 1013.3 |
| 20260505214600 | 15 | 357 | 1.6 | 4.8 | 0.00 | 0.00 | 0.00 | 91 | 1013.3 |
| 20260505214143 | 15 | 357 | 1.6 | 8.0 | 0.00 | 0.00 | 0.00 | 91 | 1013.2 |
| 20260505213938 | 15 | 359 | 1.6 | 8.0 | 0.00 | 0.00 | 0.00 | 91 | 1013.2 |
| 20260505213743 | 15 | 357 | 1.6 | 8.0 | 0.00 | 0.00 | 0.00 | 91 | 1013.2 |
| 20260505213535 | 15 | 357 | 1.6 | 8.0 | 0.00 | 0.00 | 0.00 | 91 | 1013.2 |
| 20260505213125 | 15 | 244 | 1.6 | 6.4 | 0.00 | 0.00 | 0.00 | 90 | 1013.2 |
| 20260505212926 | 15 | 248 | 1.6 | 6.4 | 0.00 | 0.00 | 0.00 | 90 | 1013.2 |
| 20260505212728 | 15 | 288 | 0.0 | 6.4 | 0.00 | 0.00 | 0.00 | 90 | 1013.0 |
| 20260505212527 | 15 | 277 | 0.0 | 6.4 | 0.00 | 0.00 | 0.00 | 90 | 1013.1 |
| 20260505212325 | 15 | 261 | 1.6 | 6.4 | 0.00 | 0.00 | 0.00 | 90 | 1013.1 |
| 20260505212127 | 15 | 282 | 1.6 | 6.4 | 0.00 | 0.00 | 0.00 | 90 | 1013.1 |
| 20260505211941 | 15 | 244 | 0.0 | 6.4 | 0.00 | 0.00 | 0.00 | 90 | 1013.1 |
| 20260505211754 | 15 | 265 | 1.6 | 4.8 | 0.00 | 0.00 | 0.00 | 90 | 1013.1 |
| 20260505211611 | 15 | 250 | 1.6 | 4.8 | 0.00 | 0.00 | 0.00 | 89 | 1013.1 |
| 20260505211437 | 15 | 233 | 1.6 | 8.0 | 0.00 | 0.00 | 0.00 | 89 | 1013.1 |
| 20260505211126 | 15 | 247 | 1.6 | 8.0 | 0.00 | 0.00 | 0.00 | 90 | 1013.1 |
| 20260505210923 | 15 | 233 | 1.6 | 9.7 | 0.00 | 0.00 | 0.00 | 89 | 1013.1 |
| 20260505210732 | 15 | 237 | 1.6 | 9.7 | 0.00 | 0.00 | 0.00 | 89 | 1013.1 |
| 20260505210516 | 15 | 244 | 1.6 | 9.7 | 0.00 | 0.00 | 0.00 | 89 | 1013.1 |
| 20260505210318 | 15 | 357 | 1.6 | 9.7 | 0.00 | 0.00 | 0.00 | 89 | 1013.1 |
| 20260505210140 | 15 | 287 | 0.0 | 9.7 | 0.00 | 0.00 | 0.00 | 89 | 1013.1 |
| 20260505210003 | 15 | 288 | 0.0 | 3.2 | 0.00 | 0.00 | 0.00 | 88 | 1013.1 |
| 20260505205707 | 15 | 311 | 0.0 | 3.2 | 0.00 | 0.00 | 0.00 | 88 | 1013.1 |
| 20260505205512 | 15 | 280 | 0.0 | 3.2 | 0.00 | 0.00 | 0.00 | 88 | 1013.1 |
| 20260505205310 | 15 | 271 | 0.0 | 3.2 | 0.00 | 0.00 | 0.00 | 88 | 1013.1 |
| 20260505205104 | 15 | 251 | 0.0 | 4.8 | 0.00 | 0.00 | 0.00 | 88 | 1013.1 |
| 20260505204902 | 15 | 253 | 0.0 | 4.8 | 0.00 | 0.00 | 0.00 | 88 | 1013.1 |
| 20260505204700 | 15 | 246 | 1.6 | 4.8 | 0.00 | 0.00 | 0.00 | 87 | 1013.1 |
| 20260505204503 | 16 | 260 | 1.6 | 4.8 | 0.00 | 0.00 | 0.00 | 87 | 1013.1 |
| 20260505204302 | 16 | 274 | 1.6 | 8.0 | 0.00 | 0.00 | 0.00 | 87 | 1013.0 |
| 20260505204102 | 16 | 253 | 1.6 | 8.0 | 0.00 | 0.00 | 0.00 | 87 | 1013.0 |
| 20260505203906 | 16 | 272 | 1.6 | 8.0 | 0.00 | 0.00 | 0.00 | 87 | 1013.0 |
| 20260505203708 | 16 | 239 | 1.6 | 8.0 | 0.00 | 0.00 | 0.00 | 86 | 1013.0 |
| 20260505203510 | 16 | 263 | 1.6 | 6.4 | 0.00 | 0.00 | 0.00 | 86 | 1013.0 |
| 20260505203306 | 16 | 267 | 1.6 | 6.4 | 0.00 | 0.00 | 0.00 | 86 | 1013.0 |
| 20260505203059 | 16 | 261 | 1.6 | 9.7 | 0.00 | 0.00 | 0.00 | 86 | 1013.0 |
| 20260505202901 | 16 | 227 | 1.6 | 9.7 | 0.00 | 0.00 | 0.00 | 86 | 1013.0 |
| 20260505202700 | 16 | 289 | 1.6 | 9.7 | 0.00 | 0.00 | 0.00 | 86 | 1013.0 |
| 20260505202500 | 16 | 274 | 1.6 | 9.7 | 0.00 | 0.00 | 0.00 | 85 | 1013.0 |
| 20260505202258 | 16 | 272 | 1.6 | 9.7 | 0.00 | 0.00 | 0.00 | 85 | 1013.0 |
| 20260505202056 | 16 | 250 | 1.6 | 11.3 | 0.00 | 0.00 | 0.00 | 85 | 1013.0 |
| 20260505201858 | 16 | 243 | 1.6 | 11.3 | 0.00 | 0.00 | 0.00 | 84 | 1013.0 |
| 20260505201710 | 16 | 251 | 1.6 | 11.3 | 0.00 | 0.00 | 0.00 | 84 | 1013.0 |
| 20260505201540 | 16 | 234 | 1.6 | 11.3 | 0.00 | 0.00 | 0.00 | 84 | 1013.0 |
| 20260505201253 | 16 | 232 | 1.6 | 11.3 | 0.00 | 0.00 | 0.00 | 84 | 1012.8 |
| 20260505201047 | 16 | 243 | 1.6 | 11.3 | 0.00 | 0.00 | 0.00 | 83 | 1012.8 |
| 20260505200853 | 16 | 267 | 1.6 | 11.3 | 0.00 | 0.00 | 0.00 | 84 | 1012.8 |
| 20260505200659 | 16 | 215 | 1.6 | 11.3 | 0.00 | 0.00 | 0.00 | 83 | 1012.8 |
| 20260505200443 | 16 | 250 | 1.6 | 8.0 | 0.00 | 0.00 | 0.00 | 83 | 1012.8 |
| 20260505200245 | 16 | 220 | 1.6 | 11.3 | 0.00 | 0.00 | 0.00 | 83 | 1012.8 |
| 20260505200109 | 16 | 254 | 1.6 | 11.3 | 0.00 | 0.00 | 0.00 | 83 | 1012.8 |
| 20260505195940 | 16 | 232 | 1.6 | 11.3 | 0.00 | 0.00 | 0.00 | 82 | 1012.7 |
| 20260505195641 | 16 | 237 | 3.2 | 11.3 | 0.00 | 0.00 | 0.00 | 82 | 1012.7 |
| 20260505195439 | 16 | 243 | 3.2 | 11.3 | 0.00 | 0.00 | 0.00 | 82 | 1012.7 |
| 20260505195244 | 16 | 233 | 3.2 | 11.3 | 0.00 | 0.00 | 0.00 | 82 | 1012.7 |
| 20260505195049 | 16 | 193 | 3.2 | 11.3 | 0.00 | 0.00 | 0.00 | 82 | 1012.7 |
| 20260505194849 | 16 | 213 | 3.2 | 11.3 | 0.00 | 0.00 | 0.00 | 82 | 1012.7 |
| 20260505194700 | 16 | 254 | 1.6 | 9.7 | 0.00 | 0.00 | 0.00 | 82 | 1012.7 |
| 20260505194527 | 16 | 193 | 1.6 | 9.7 | 0.00 | 0.00 | 0.00 | 82 | 1012.7 |
| 20260505194239 | 16 | 226 | 1.6 | 9.7 | 0.00 | 0.00 | 0.00 | 81 | 1012.7 |
| 20260505194039 | 16 | 217 | 1.6 | 9.7 | 0.00 | 0.00 | 0.00 | 81 | 1012.7 |
| 20260505193845 | 16 | 223 | 1.6 | 11.3 | 0.00 | 0.00 | 0.00 | 81 | 1012.7 |
| 20260505193652 | 16 | 212 | 1.6 | 11.3 | 0.00 | 0.00 | 0.00 | 81 | 1012.7 |
| 20260505193430 | 16 | 199 | 1.6 | 11.3 | 0.00 | 0.00 | 0.00 | 81 | 1012.7 |
| 20260505193232 | 16 | 182 | 1.6 | 11.3 | 0.00 | 0.00 | 0.00 | 81 | 1012.7 |
| 20260505193026 | 16 | 184 | 1.6 | 11.3 | 0.00 | 0.00 | 0.00 | 81 | 1012.7 |
| 20260505192831 | 16 | 217 | 1.6 | 12.9 | 0.00 | 0.00 | 0.00 | 80 | 1012.5 |
| 20260505192625 | 16 | 202 | 1.6 | 12.9 | 0.00 | 0.00 | 0.00 | 80 | 1012.5 |
| 20260505192423 | 16 | 150 | 1.6 | 12.9 | 0.00 | 0.00 | 0.00 | 80 | 1012.5 |
| 20260505192219 | 16 | 171 | 1.6 | 12.9 | 0.00 | 0.00 | 0.00 | 80 | 1012.5 |
| 20260505192018 | 16 | 165 | 1.6 | 12.9 | 0.00 | 0.00 | 0.00 | 79 | 1012.5 |
| 20260505191815 | 16 | 184 | 3.2 | 9.7 | 0.00 | 0.00 | 0.00 | 79 | 1012.5 |
| 20260505191612 | 16 | 217 | 3.2 | 9.7 | 0.00 | 0.00 | 0.00 | 78 | 1012.5 |
| 20260505191413 | 16 | 209 | 3.2 | 9.7 | 0.00 | 0.00 | 0.00 | 78 | 1012.4 |
| 20260505191216 | 16 | 199 | 3.2 | 9.7 | 0.00 | 0.00 | 0.00 | 78 | 1012.4 |
| 20260505191016 | 16 | 200 | 3.2 | 11.3 | 0.00 | 0.00 | 0.00 | 77 | 1012.4 |
| 20260505190830 | 16 | 202 | 3.2 | 11.3 | 0.00 | 0.00 | 0.00 | 77 | 1012.4 |
| 20260505190650 | 16 | 212 | 3.2 | 11.3 | 0.00 | 0.00 | 0.00 | 77 | 1012.4 |
| 20260505190505 | 16 | 200 | 3.2 | 11.3 | 0.00 | 0.00 | 0.00 | 77 | 1012.4 |
| 20260505190219 | 16 | 196 | 3.2 | 11.3 | 0.00 | 0.00 | 0.00 | 76 | 1012.4 |
| 20260505190018 | 16 | 182 | 3.2 | 12.9 | 0.00 | 0.00 | 0.00 | 76 | 1012.4 |
| 20260505185820 | 16 | 195 | 3.2 | 12.9 | 0.00 | 0.00 | 0.00 | 76 | 1012.2 |
| 20260505185612 | 16 | 212 | 3.2 | 12.9 | 0.00 | 0.00 | 0.00 | 76 | 1012.2 |
| 20260505185419 | 16 | 203 | 1.6 | 12.9 | 0.00 | 0.00 | 0.00 | 76 | 1012.2 |
| 20260505185212 | 16 | 151 | 1.6 | 12.9 | 0.00 | 0.00 | 0.00 | 76 | 1012.2 |
| 20260505185011 | 16 | 215 | 1.6 | 9.7 | 0.00 | 0.00 | 0.00 | 75 | 1012.2 |
| 20260505184815 | 16 | 189 | 1.6 | 9.7 | 0.00 | 0.00 | 0.00 | 75 | 1012.2 |
| 20260505184604 | 16 | 213 | 0.0 | 9.7 | 0.00 | 0.00 | 0.00 | 75 | 1012.2 |
| 20260505184407 | 16 | 216 | 1.6 | 9.7 | 0.00 | 0.00 | 0.00 | 75 | 1012.0 |
| 20260505184205 | 16 | 195 | 1.6 | 9.7 | 0.00 | 0.00 | 0.00 | 75 | 1012.0 |
| 20260505184009 | 16 | 185 | 1.6 | 9.7 | 0.00 | 0.00 | 0.00 | 75 | 1012.0 |
| 20260505183805 | 16 | 164 | 1.6 | 9.7 | 0.00 | 0.00 | 0.00 | 75 | 1012.0 |
| 20260505183615 | 16 | 161 | 3.2 | 9.7 | 0.00 | 0.00 | 0.00 | 75 | 1012.0 |
| 20260505183402 | 16 | 178 | 3.2 | 9.7 | 0.00 | 0.00 | 0.00 | 76 | 1012.0 |
| 20260505183202 | 16 | 200 | 3.2 | 9.7 | 0.00 | 0.00 | 0.00 | 76 | 1012.0 |
| 20260505182959 | 16 | 217 | 3.2 | 9.7 | 0.00 | 0.00 | 0.00 | 77 | 1012.0 |
| 20260505182808 | 16 | 191 | 1.6 | 9.7 | 0.00 | 0.00 | 0.00 | 77 | 1011.8 |
| 20260505182606 | 16 | 216 | 1.6 | 9.7 | 0.00 | 0.00 | 0.00 | 77 | 1011.8 |
| 20260505182402 | 16 | 206 | 1.6 | 9.7 | 0.00 | 0.00 | 0.00 | 77 | 1011.8 |
| 20260505182156 | 16 | 196 | 1.6 | 9.7 | 0.00 | 0.00 | 0.00 | 78 | 1011.8 |
| 20260505181955 | 16 | 215 | 1.6 | 9.7 | 0.00 | 0.00 | 0.00 | 78 | 1011.8 |
| 20260505181757 | 16 | 184 | 1.6 | 9.7 | 0.00 | 0.00 | 0.00 | 78 | 1011.8 |
| 20260505181600 | 16 | 181 | 1.6 | 9.7 | 0.00 | 0.00 | 0.00 | 78 | 1011.8 |
| 20260505181353 | 17 | 208 | 1.6 | 9.7 | 0.00 | 0.00 | 0.00 | 78 | 1011.7 |
| 20260505181149 | 17 | 196 | 3.2 | 9.7 | 0.00 | 0.00 | 0.00 | 78 | 1011.7 |
| 20260505180948 | 17 | 213 | 3.2 | 11.3 | 0.00 | 0.00 | 0.00 | 78 | 1011.7 |
| 20260505180755 | 17 | 212 | 3.2 | 11.3 | 0.00 | 0.00 | 0.00 | 79 | 1011.7 |
| 20260505180549 | 17 | 182 | 3.2 | 11.3 | 0.00 | 0.00 | 0.00 | 79 | 1011.7 |
| 20260505180342 | 17 | 230 | 4.8 | 12.9 | 0.00 | 0.00 | 0.00 | 79 | 1011.7 |
| 20260505180144 | 17 | 172 | 4.8 | 17.7 | 0.00 | 0.00 | 0.00 | 79 | 1011.7 |
| 20260505175943 | 17 | 174 | 4.8 | 17.7 | 0.00 | 0.00 | 0.00 | 80 | 1011.7 |
| 20260505175743 | 17 | 191 | 4.8 | 17.7 | 0.00 | 0.00 | 0.00 | 80 | 1011.6 |
| 20260505175539 | 17 | 216 | 4.8 | 19.3 | 0.00 | 0.00 | 0.00 | 80 | 1011.6 |
| 20260505175338 | 17 | 198 | 4.8 | 20.9 | 0.00 | 0.00 | 0.00 | 81 | 1011.6 |
| 20260505175138 | 16 | 199 | 6.4 | 20.9 | 0.00 | 0.00 | 0.00 | 81 | 1011.6 |
| 20260505174935 | 17 | 205 | 4.8 | 20.9 | 0.00 | 0.00 | 0.00 | 83 | 1011.6 |
| 20260505174737 | 16 | 219 | 4.8 | 20.9 | 0.00 | 0.00 | 0.00 | 83 | 1011.6 |
| 20260505174533 | 16 | 199 | 4.8 | 20.9 | 0.00 | 0.00 | 0.00 | 83 | 1011.6 |
| 20260505174329 | 16 | 234 | 4.8 | 17.7 | 0.00 | 0.00 | 0.00 | 84 | 1011.6 |
| 20260505174128 | 16 | 203 | 3.2 | 11.3 | 0.00 | 0.00 | 0.00 | 85 | 1011.6 |
| 20260505173935 | 16 | 220 | 3.2 | 11.3 | 0.00 | 0.00 | 0.00 | 85 | 1011.6 |
| 20260505173758 | 16 | 258 | 3.2 | 12.9 | 0.00 | 0.00 | 0.00 | 86 | 1011.6 |
| 20260505173619 | 17 | 239 | 3.2 | 12.9 | 0.00 | 0.00 | 0.00 | 86 | 1011.6 |
| 20260505173434 | 17 | 169 | 3.2 | 16.1 | 0.00 | 0.00 | 0.00 | 86 | 1011.6 |
| 20260505173142 | 17 | 234 | 3.2 | 16.1 | 0.00 | 0.00 | 0.00 | 86 | 1011.6 |
| 20260505172959 | 17 | 193 | 3.2 | 16.1 | 0.00 | 0.00 | 0.00 | 87 | 1011.6 |
| 20260505172831 | 17 | 354 | 3.2 | 16.1 | 0.00 | 0.00 | 0.00 | 87 | 1011.3 |
| 20260505172525 | 17 | 356 | 3.2 | 16.1 | 0.00 | 0.00 | 0.00 | 87 | 1011.3 |
| 20260505172323 | 17 | 356 | 1.6 | 11.3 | 0.00 | 0.00 | 0.00 | 87 | 1011.3 |
| 20260505172118 | 17 | 359 | 1.6 | 11.3 | 0.00 | 0.00 | 0.00 | 87 | 1011.3 |
| 20260505171915 | 17 | 352 | 1.6 | 11.3 | 0.00 | 0.00 | 0.00 | 87 | 1011.3 |
| 20260505171727 | 17 | 354 | 3.2 | 11.3 | 0.00 | 0.00 | 0.00 | 87 | 1011.3 |
| 20260505171523 | 17 | 354 | 3.2 | 11.3 | 0.00 | 0.00 | 0.00 | 86 | 1011.3 |
| 20260505171350 | 17 | 356 | 3.2 | 11.3 | 0.00 | 0.00 | 0.00 | 86 | 1011.4 |
| 20260505171109 | 17 | 356 | 3.2 | 9.7 | 0.00 | 0.00 | 0.00 | 86 | 1011.4 |
| 20260505170908 | 17 | 356 | 3.2 | 9.7 | 0.00 | 0.00 | 0.00 | 86 | 1011.4 |
| 20260505170719 | 17 | 356 | 4.8 | 11.3 | 0.00 | 0.00 | 0.00 | 85 | 1011.4 |
| 20260505170513 | 17 | 356 | 4.8 | 11.3 | 0.00 | 0.00 | 0.00 | 85 | 1011.4 |
| 20260505170259 | 17 | 120 | 6.4 | 11.3 | 0.00 | 0.00 | 0.00 | 84 | 1011.4 |
| 20260505170059 | 18 | 117 | 6.4 | 11.3 | 0.00 | 0.00 | 0.00 | 83 | 1011.4 |
| 20260505165858 | 18 | 150 | 6.4 | 12.9 | 0.00 | 0.00 | 0.00 | 82 | 1011.2 |
| 20260505165711 | 18 | 133 | 6.4 | 17.7 | 0.00 | 0.00 | 0.00 | 81 | 1011.2 |
| 20260505165520 | 18 | 134 | 8.0 | 19.3 | 0.00 | 0.00 | 0.00 | 80 | 1011.2 |
| 20260505165347 | 18 | 127 | 8.0 | 19.3 | 0.00 | 0.00 | 0.00 | 79 | 1011.3 |
| 20260505165056 | 18 | 172 | 9.7 | 19.3 | 0.00 | 0.00 | 0.00 | 78 | 1011.3 |
| 20260505164856 | 19 | 186 | 8.0 | 19.3 | 0.00 | 0.00 | 0.00 | 77 | 1011.3 |
| 20260505164659 | 19 | 133 | 8.0 | 19.3 | 0.00 | 0.00 | 0.00 | 74 | 1011.3 |
| 20260505164459 | 20 | 174 | 8.0 | 19.3 | 0.00 | 0.00 | 0.00 | 72 | 1011.3 |
| 20260505164306 | 20 | 131 | 6.4 | 17.7 | 0.00 | 0.00 | 0.00 | 69 | 1011.1 |
| 20260505164051 | 20 | 114 | 6.4 | 17.7 | 0.00 | 0.00 | 0.00 | 68 | 1011.1 |
| 20260505163901 | 21 | 89 | 6.4 | 17.7 | 0.00 | 0.00 | 0.00 | 66 | 1011.1 |
| 20260505163710 | 21 | 174 | 6.4 | 17.7 | 0.00 | 0.00 | 0.00 | 64 | 1011.1 |
| 20260505163501 | 21 | 150 | 6.4 | 19.3 | 0.00 | 0.00 | 0.00 | 60 | 1011.1 |
| 20260505163257 | 22 | 126 | 6.4 | 19.3 | 0.00 | 0.00 | 0.00 | 57 | 1011.1 |
| 20260505163052 | 22 | 169 | 4.8 | 19.3 | 0.00 | 0.00 | 0.00 | 52 | 1011.1 |
| 20260505162848 | 22 | 174 | 4.8 | 19.3 | 0.00 | 0.00 | 0.00 | 49 | 1010.9 |
| 20260505162658 | 23 | 92 | 3.2 | 19.3 | 0.00 | 0.00 | 0.00 | 46 | 1010.9 |
| 20260505162446 | 24 | 145 | 1.6 | 11.3 | 0.00 | 0.00 | 0.00 | 39 | 1010.9 |
| 20260505162247 | 25 | 186 | 0.0 | 9.7 | 0.00 | 0.00 | 0.00 | 35 | 1010.9 |
| 20260505162045 | 25 | 151 | 0.0 | 4.8 | 0.00 | 0.00 | 0.00 | 31 | 1010.9 |
| 20260505161845 | 25 | 189 | 0.0 | 8.0 | 0.00 | 0.00 | 0.00 | 30 | 1010.9 |
| 20260505161425 | 25 | 216 | 0.0 | 8.0 | 0.00 | 0.00 | 0.00 | 30 | 1010.9 |
| 20260505161227 | 25 | 186 | 0.0 | 8.0 | 0.00 | 0.00 | 0.00 | 29 | 1010.9 |
| 20260505161026 | 25 | 195 | 0.0 | 4.8 | 0.00 | 0.00 | 0.00 | 30 | 1010.9 |
| 20260505160820 | 25 | 195 | 0.0 | 4.8 | 0.00 | 0.00 | 0.00 | 29 | 1010.9 |
| 20260505160613 | 25 | 169 | 0.0 | 9.7 | 0.00 | 0.00 | 0.00 | 29 | 1010.9 |
| 20260505160416 | 25 | 178 | 0.0 | 9.7 | 0.00 | 0.00 | 0.00 | 28 | 1010.9 |
| 20260505160203 | 25 | 223 | 1.6 | 9.7 | 0.00 | 0.00 | 0.00 | 28 | 1010.9 |